ONEWEB-0690, 61598

Orbit data source: Space-Track

ONEWEB-0690, 61598 is a payload satellite owned by Eut. One Web (UK) in LEO that was launched on Sun, 20 Oct 2024 UTC via an FALCON 9 launch vehicle from the Air Force Western Test Range (AFWTR). Payload-class satellites include a variety of spacecraft equipped with specific instruments for various scientific and technological missions. These include communications satellites like Starlink; space stations such as the ISS; scientific satellites like the Hubble; Earth observation satellites from companies like Planet Labs, Umbra, and HawkEye 360; GPS; miniature CubeSats for education and research; and military/defense satellites.

Loading next visibility...
Identifier
61598, 2024-188E
Orbit
LEO
Country
Flag of UKUK
Related business
Manufacturer
One Web
Mission
Operational spacecraft
Bus & Motor
ARROW, Unknown motor
Mass
148 kg wet, ~140 kg dry
Launch date (UTC)
2024-10-20 (1 year ago)
Launch vehicle
FALCON 9
Launch site
Air Force Western Test Range (AFWTR)
Object type
Payload
Rocket body
Debris
Shape & HBR
Unknown shape, 6.7 m
Radar Cross Section
Large (>1 m²)

Expand to show TLE details & history
Last TLE update: 9 hours ago

TLE from 9 hours ago
0 ONEWEB-0690
1 61598U 24188E   25340.62789298 -.00000343  00000-0 -10046-2 0  9992
2 61598  87.8878  59.3929 0002420  98.4287 261.7115 13.11416988 59391
Epoch: 2025-12-06T15:04Z
TLE epoch observation values (Epoch: 2025-12-06T15:04:09.953Z)
Latitude
-0.00005°
Longitude
117.69852°
Altitude
1,220.837 km
Speed
7.244 km/s
True Right ascension
03h 57m 34s
True Declination
0° 00' 00"
Sunlit
Object was in full shadow at epoch
Visualization orbit readout
Latitude
Unknown
Longitude
Unknown
Altitude
Unknown
Speed
Unknown
Apparent Right ascension
Unknown
Apparent Declination
Unknown
Sunlit
N/A
Visualization observer readout
Local Sidereal Time
22:12:22
Azimuth
Unknown
Elevation
Unknown
Doppler factor
Unknown
Orbital elements
Apogee altitude
1,216.638 km
Perigee altitude
1,212.963 km
Semi-major axis
7,592.938 km
Eccentricity
0.00024
Inclination
87.8878°
RAAN
59.3929°
Arg. of periapsis
98.4287°
True anomaly
261.68406°
Mean anomaly
261.7115°
Eccentric anomaly
261.69778°
Mean motion
3.28041 °/min
Orbital period
109.74 mins
BSTAR
-0.0010046
Loading maneuver chart data...
Computing Atmospheric mass density...
Loading historical data...
Loading historical data...
Loading historical data...
Loading historical data...
Loading historical data...
Loading historical data...
Loading historical data...

Documentation

Showing up to 5 results
|